This is the latest recevied weather packets stored in our database for station/object VK5FR. If no packets are shown the sender has not sent any weather packets the latest 10 day(s).
| Time | Temp. | Humidity | Pressure | Rain* | Wind** | Luminosity | Snow |
|---|---|---|---|---|---|---|---|
| 1778160906 | 14.44° C | 67% | 1028 hPa | 0 mm | - | - | - |
| 1778160605 | 14.44° C | 66% | 1028.2 hPa | 0 mm | - | - | - |
| 1778160301 | 14.44° C | 67% | 1028.1 hPa | 0 mm | - | - | - |
| 1778159997 | 14.44° C | 67% | 1028 hPa | 0 mm | - | - | - |
| 1778159694 | 14.44° C | 67% | 1028.4 hPa | 0 mm | - | - | - |
| 1778159391 | 14.44° C | 66% | 1028.3 hPa | 0 mm | - | - | - |
| 1778159088 | 14.44° C | 66% | 1028.5 hPa | 0 mm | - | - | - |
| 1778158787 | 14.44° C | 65% | 1028.3 hPa | 0 mm | - | - | - |
| 1778158485 | 14.44° C | 64% | 1028.5 hPa | 0 mm | - | - | - |
| 1778158182 | 14.44° C | 65% | 1028.3 hPa | 0 mm | - | - | - |
| 1778157878 | 14.44° C | 64% | 1028.4 hPa | 0 mm | - | - | - |
| 1778157576 | 14.44° C | 64% | 1028.6 hPa | 0 mm | - | - | - |
| 1778157273 | 14.44° C | 65% | 1028.4 hPa | 0 mm | - | - | - |
| 1778156970 | 14.44° C | 66% | 1028.5 hPa | 0 mm | - | - | - |
| 1778156665 | 14.44° C | 66% | 1028.6 hPa | 0 mm | - | - | - |
| 1778156361 | 14.44° C | 67% | 1028.6 hPa | 0 mm | - | - | - |
| 1778156057 | 13.89° C | 68% | 1028.6 hPa | 0 mm | - | - | - |
| 1778155754 | 13.89° C | 72% | 1028.7 hPa | 0 mm | - | - | - |
| 1778155450 | 13.89° C | 73% | 1028.6 hPa | 0 mm | - | - | - |
| 1778155146 | 13.89° C | 73% | 1028.6 hPa | 0 mm | - | - | - |
| 1778154843 | 14.44° C | 71% | 1028.6 hPa | 0 mm | - | - | - |
| 1778154538 | 14.44° C | 67% | 1028.7 hPa | 0 mm | - | - | - |
| 1778154235 | 13.89° C | 69% | 1028.5 hPa | 0 mm | - | - | - |
| 1778153932 | 13.89° C | 70% | 1028.6 hPa | 0 mm | - | - | - |
| 1778153630 | 13.89° C | 71% | 1028.6 hPa | 0 mm | - | - | - |
* Rain latest hour (hover to see other rain measurements)
** Current wind speed in m/s (hover to see current wind gust speed)